Tracking 19800 objects as of 24-Jul-2019
HD Live streaming from Space Station
objects crossing your sky now

FENGYUN 1C DEB

Track FENGYUN 1C DEB now!
10-day predictions


NORAD ID: 32451
Int'l Code: 1999-025DBP
Perigee: 837.9 km
Apogee: 1,159.5 km
Inclination: 100.0 °
Period: 104.9 minutes
Semi major axis: 7369 km
RCS: 0.0193 m2 (small)
Launch date: May 10, 1999
Source: People's Republic of China (PRC)
Launch site: Taiyaun Space Center, China (TSC)

Note: This is SATELLITE DEBRIS
aabbcc
Your satellite tracking list
Your tracking list is empty




NASA's NSSDC Master Catalog

Two Line Element Set (TLE):
1 32451U 99025DBP 19204.33458845  .00000420  00000-0  43199-3 0  9991
2 32451 100.0103  42.4674 0218217  88.2288 274.3836 13.72237276603019
Source of the keplerian elements: AFSPC